TimeEST,TemperatureF,Dew PointF,Humidity,Sea Level PressureIn,VisibilityMPH,Wind Direction,Wind SpeedMPH,Gust SpeedMPH,PrecipitationIn,Events,Conditions,WindDirDegrees,DateUTC
12:56 AM,61.0,60.1,97,30.02,4.0,North,6.9,-,N/A,,Overcast,360,2012-12-07 05:56:00
1:56 AM,61.0,59.0,93,30.02,3.0,North,8.1,-,N/A,,Overcast,10,2012-12-07 06:56:00
2:56 AM,60.1,60.1,100,30.02,3.0,NNE,6.9,-,N/A,,Overcast,20,2012-12-07 07:56:00
3:14 AM,60.8,59.0,94,30.02,1.5,North,6.9,-,N/A,,Overcast,10,2012-12-07 08:14:00
3:56 AM,60.1,59.0,96,30.01,1.5,North,8.1,-,N/A,,Overcast,10,2012-12-07 08:56:00
4:56 AM,59.0,57.9,96,30.01,1.5,NNW,4.6,-,N/A,,Overcast,340,2012-12-07 09:56:00
5:24 AM,59.0,57.2,94,30.00,2.5,North,6.9,-,N/A,,Overcast,10,2012-12-07 10:24:00
5:56 AM,59.0,57.9,96,30.01,2.5,North,3.5,-,N/A,,Overcast,360,2012-12-07 10:56:00
6:56 AM,59.0,57.9,96,30.03,2.0,North,4.6,-,N/A,,Overcast,360,2012-12-07 11:56:00
7:39 AM,57.2,57.2,100,30.04,0.8,NNE,9.2,-,N/A,,Overcast,30,2012-12-07 12:39:00
7:56 AM,57.9,57.9,100,30.04,0.8,NNE,6.9,-,0.00,,Light Drizzle,30,2012-12-07 12:56:00
8:24 AM,59.0,57.2,94,30.04,1.5,NNE,9.2,-,0.00,,Overcast,30,2012-12-07 13:24:00
8:40 AM,59.0,57.2,94,30.04,2.0,NNE,5.8,-,0.00,,Overcast,20,2012-12-07 13:40:00
8:56 AM,59.0,57.9,96,30.05,2.5,NNE,5.8,-,0.00,,Overcast,20,2012-12-07 13:56:00
9:10 AM,60.8,57.2,88,30.05,4.0,North,5.8,-,N/A,,Overcast,360,2012-12-07 14:10:00
9:56 AM,60.1,57.9,93,30.06,6.0,North,4.6,-,N/A,,Overcast,360,2012-12-07 14:56:00
10:56 AM,60.1,57.9,93,30.06,5.0,NNW,3.5,-,N/A,,Overcast,340,2012-12-07 15:56:00
11:10 AM,60.8,57.2,88,30.06,2.0,North,4.6,-,N/A,,Overcast,10,2012-12-07 16:10:00
11:56 AM,61.0,59.0,93,30.04,2.0,NNW,5.8,-,0.00,,Light Drizzle,340,2012-12-07 16:56:00
12:12 PM,60.8,59.0,94,30.03,5.0,NW,3.5,-,0.00,,Overcast,320,2012-12-07 17:12:00
12:56 PM,62.1,59.0,90,30.01,8.0,NE,3.5,-,0.00,,Overcast,50,2012-12-07 17:56:00
1:12 PM,62.6,59.0,88,30.00,8.0,Calm,Calm,-,N/A,,Overcast,0,2012-12-07 18:12:00
1:56 PM,62.1,59.0,90,30.00,8.0,Calm,Calm,-,N/A,,Overcast,0,2012-12-07 18:56:00
2:56 PM,63.0,59.0,87,29.99,9.0,Calm,Calm,-,N/A,,Overcast,0,2012-12-07 19:56:00
3:56 PM,63.0,59.0,87,29.99,9.0,Calm,Calm,-,N/A,,Overcast,0,2012-12-07 20:56:00
4:56 PM,63.0,59.0,87,29.99,10.0,North,3.5,-,N/A,,Overcast,360,2012-12-07 21:56:00
5:56 PM,63.0,57.9,84,29.99,10.0,Calm,Calm,-,N/A,,Overcast,0,2012-12-07 22:56:00
6:45 PM,62.6,59.0,88,30.00,9.0,NE,3.5,-,N/A,,Overcast,50,2012-12-07 23:45:00
6:56 PM,62.1,59.0,90,30.01,7.0,NE,3.5,-,N/A,,Overcast,50,2012-12-07 23:56:00
7:56 PM,61.0,59.0,93,30.02,5.0,ENE,3.5,-,N/A,,Overcast,70,2012-12-08 00:56:00
8:56 PM,61.0,57.9,90,30.03,6.0,ENE,4.6,-,N/A,,Overcast,70,2012-12-08 01:56:00
9:56 PM,61.0,59.0,93,30.03,7.0,East,3.5,-,N/A,,Overcast,100,2012-12-08 02:56:00
10:56 PM,57.9,55.9,93,30.04,6.0,SSE,3.5,-,N/A,,Scattered Clouds,150,2012-12-08 03:56:00
11:25 PM,57.2,57.2,100,30.03,2.0,Calm,Calm,-,N/A,,Partly Cloudy,0,2012-12-08 04:25:00
11:39 PM,57.2,55.4,94,30.03,1.5,Calm,Calm,-,N/A,,Partly Cloudy,0,2012-12-08 04:39:00
11:46 PM,55.4,53.6,94,30.03,1.2,East,4.6,-,N/A,,Scattered Clouds,80,2012-12-08 04:46:00
11:56 PM,55.0,54.0,96,30.03,1.2,Calm,Calm,-,N/A,,Scattered Clouds,0,2012-12-08 04:56:00